Time,TemperatureF,DewpointF,PressureIn,WindDirection,WindDirectionDegrees,WindSpeedMPH,WindSpeedGustMPH,Humidity,HourlyPrecipIn,Conditions,Clouds,dailyrainin,SolarRadiationWatts/m^2,SoftwareType,DateUTC
2013-08-22 07:11:00,73.0,45.0,-100.00,East,100,5.0,8.0,37,-99.99,,,-99.99,48.000000,,2013-08-22 14:11:00,
2013-08-22 07:52:00,73.0,45.0,-100.00,East,100,5.0,8.0,37,-99.99,,,-99.99,48.000000,,2013-08-22 14:52:00,
2013-08-22 08:01:00,73.0,45.0,-100.00,East,100,5.0,8.0,37,-99.99,,,-99.99,48.000000,,2013-08-22 15:01:00,
2013-08-22 08:11:00,79.0,47.0,-100.00,East,96,4.0,6.0,32,0.00,,,-99.99,112.000000,,2013-08-22 15:11:00,
2013-08-22 08:55:00,79.0,47.0,-100.00,East,96,4.0,6.0,32,0.00,,,-99.99,112.000000,,2013-08-22 15:55:00,
2013-08-22 09:05:00,79.0,47.0,-100.00,East,96,4.0,6.0,32,0.00,,,-99.99,112.000000,,2013-08-22 16:05:00,
2013-08-22 09:11:00,85.0,48.0,-100.00,East,94,5.0,9.0,28,0.00,,,-99.99,430.000000,,2013-08-22 16:11:00,
2013-08-22 09:43:00,85.0,48.0,-100.00,East,94,5.0,9.0,28,0.00,,,-99.99,430.000000,,2013-08-22 16:43:00,
2013-08-22 09:54:00,85.0,48.0,-100.00,East,94,5.0,9.0,28,0.00,,,-99.99,430.000000,,2013-08-22 16:54:00,
2013-08-22 10:02:00,85.0,48.0,-100.00,East,94,5.0,9.0,28,0.00,,,-99.99,430.000000,,2013-08-22 17:02:00,
2013-08-22 10:11:00,89.0,47.0,-100.00,ESE,110,6.0,13.0,24,0.00,,,-99.99,614.000000,,2013-08-22 17:11:00,
2013-08-22 10:43:00,89.0,47.0,-100.00,ESE,110,6.0,13.0,24,0.00,,,-99.99,614.000000,,2013-08-22 17:43:00,
2013-08-22 10:53:00,89.0,47.0,-100.00,ESE,110,6.0,13.0,24,0.00,,,-99.99,614.000000,,2013-08-22 17:53:00,
2013-08-22 11:02:00,89.0,47.0,-100.00,ESE,110,6.0,13.0,24,0.00,,,-99.99,614.000000,,2013-08-22 18:02:00,
2013-08-22 11:11:00,91.0,49.0,-100.00,ESE,114,6.0,14.0,24,0.00,,,-99.99,752.000000,,2013-08-22 18:11:00,
2013-08-22 11:52:00,91.0,49.0,-100.00,ESE,114,6.0,14.0,24,0.00,,,-99.99,752.000000,,2013-08-22 18:52:00,
2013-08-22 12:02:00,91.0,49.0,-100.00,ESE,114,6.0,14.0,24,0.00,,,-99.99,752.000000,,2013-08-22 19:02:00,
2013-08-22 12:11:00,94.0,48.0,-100.00,SSW,212,5.0,12.0,21,0.00,,,-99.99,688.000000,,2013-08-22 19:11:00,
2013-08-22 12:42:00,94.0,48.0,-100.00,SSW,212,5.0,12.0,21,0.00,,,-99.99,688.000000,,2013-08-22 19:42:00,
2013-08-22 12:53:00,94.0,48.0,-100.00,SSW,212,5.0,12.0,21,0.00,,,-99.99,688.000000,,2013-08-22 19:53:00,
2013-08-22 13:02:00,94.0,48.0,-100.00,SSW,212,5.0,12.0,21,0.00,,,-99.99,688.000000,,2013-08-22 20:02:00,
2013-08-22 13:11:00,97.0,46.0,-100.00,ESE,108,4.0,17.0,18,0.00,,,-99.99,867.000000,,2013-08-22 20:11:00,
2013-08-22 13:42:00,97.0,46.0,-100.00,ESE,108,4.0,17.0,18,0.00,,,-99.99,867.000000,,2013-08-22 20:42:00,
2013-08-22 13:52:00,97.0,46.0,-100.00,ESE,108,4.0,17.0,18,0.00,,,-99.99,867.000000,,2013-08-22 20:52:00,
2013-08-22 14:02:00,97.0,46.0,-100.00,ESE,108,4.0,17.0,18,0.00,,,-99.99,867.000000,,2013-08-22 21:02:00,
2013-08-22 14:11:00,96.0,44.0,-100.00,ESE,108,4.0,11.0,17,0.00,,,-99.99,578.000000,,2013-08-22 21:11:00,
2013-08-22 14:44:00,96.0,44.0,-100.00,ESE,108,4.0,11.0,17,0.00,,,-99.99,578.000000,,2013-08-22 21:44:00,
2013-08-22 14:54:00,96.0,44.0,-100.00,ESE,108,4.0,11.0,17,0.00,,,-99.99,578.000000,,2013-08-22 21:54:00,
2013-08-22 15:05:00,96.0,44.0,-100.00,ESE,108,4.0,11.0,17,0.00,,,-99.99,578.000000,,2013-08-22 22:05:00,
2013-08-22 15:11:00,95.0,45.0,-100.00,South,178,2.0,7.0,18,0.00,,,-99.99,345.000000,,2013-08-22 22:11:00,
2013-08-22 15:42:00,95.0,45.0,-100.00,South,178,2.0,7.0,18,0.00,,,-99.99,345.000000,,2013-08-22 22:42:00,
2013-08-22 15:53:00,95.0,45.0,-100.00,South,178,2.0,7.0,18,0.00,,,-99.99,345.000000,,2013-08-22 22:53:00,
2013-08-22 16:02:00,95.0,45.0,-100.00,South,178,2.0,7.0,18,0.00,,,-99.99,345.000000,,2013-08-22 23:02:00,
2013-08-22 16:42:00,89.0,53.0,-100.00,West,261,9.0,20.0,29,0.00,,,-99.99,137.000000,,2013-08-22 23:42:00,
2013-08-22 16:52:00,89.0,53.0,-100.00,West,261,9.0,20.0,29,0.00,,,-99.99,137.000000,,2013-08-22 23:52:00,
2013-08-22 17:02:00,89.0,53.0,-100.00,West,261,9.0,20.0,29,0.00,,,-99.99,137.000000,,2013-08-23 00:02:00,
2013-08-22 17:11:00,73.0,62.0,-100.00,SSW,196,4.0,33.0,68,-99.99,,,-99.99,249.000000,,2013-08-23 00:11:00,
2013-08-22 17:42:00,73.0,62.0,-100.00,SSW,196,4.0,33.0,68,-99.99,,,-99.99,249.000000,,2013-08-23 00:42:00,
2013-08-22 17:52:00,73.0,62.0,-100.00,SSW,196,4.0,33.0,68,-99.99,,,-99.99,249.000000,,2013-08-23 00:52:00,
2013-08-22 18:01:00,73.0,62.0,-100.00,SSW,196,4.0,33.0,68,-99.99,,,-99.99,249.000000,,2013-08-23 01:01:00,
2013-08-22 18:11:00,79.0,59.0,-100.00,SE,134,2.0,7.0,51,0.00,,,-99.99,163.000000,,2013-08-23 01:11:00,
2013-08-22 18:42:00,79.0,59.0,-100.00,SE,134,2.0,7.0,51,0.00,,,-99.99,163.000000,,2013-08-23 01:42:00,
2013-08-22 18:52:00,79.0,59.0,-100.00,SE,134,2.0,7.0,51,0.00,,,-99.99,163.000000,,2013-08-23 01:52:00,
2013-08-22 19:02:00,79.0,59.0,-100.00,SE,134,2.0,7.0,51,0.00,,,-99.99,163.000000,,2013-08-23 02:02:00,
2013-08-22 19:11:00,79.0,58.0,-100.00,ESE,113,2.0,6.0,48,0.00,,,-99.99,29.000000,,2013-08-23 02:11:00,
2013-08-22 19:43:00,79.0,58.0,-100.00,ESE,113,2.0,6.0,48,0.00,,,-99.99,29.000000,,2013-08-23 02:43:00,
2013-08-22 19:52:00,79.0,58.0,-100.00,ESE,113,2.0,6.0,48,0.00,,,-99.99,29.000000,,2013-08-23 02:52:00,
2013-08-22 20:02:00,79.0,58.0,-100.00,ESE,113,2.0,6.0,48,0.00,,,-99.99,29.000000,,2013-08-23 03:02:00,
2013-08-22 20:11:00,77.0,56.0,-100.00,West,270,4.0,6.0,48,0.00,,,-99.99,3.000000,,2013-08-23 03:11:00,
2013-08-22 20:44:00,77.0,56.0,-100.00,West,270,4.0,6.0,48,0.00,,,-99.99,3.000000,,2013-08-23 03:44:00,
2013-08-22 20:55:00,77.0,56.0,-100.00,West,270,4.0,6.0,48,0.00,,,-99.99,3.000000,,2013-08-23 03:55:00,
2013-08-22 21:04:00,77.0,56.0,-100.00,West,270,4.0,6.0,48,0.00,,,-99.99,3.000000,,2013-08-23 04:04:00,
2013-08-22 21:11:00,74.0,58.0,-100.00,SSE,159,2.0,9.0,58,0.00,,,-99.99,1.000000,,2013-08-23 04:11:00,
2013-08-22 21:43:00,74.0,58.0,-100.00,SSE,159,2.0,9.0,58,0.00,,,-99.99,1.000000,,2013-08-23 04:43:00,
2013-08-22 21:54:00,74.0,58.0,-100.00,SSE,159,2.0,9.0,58,0.00,,,-99.99,1.000000,,2013-08-23 04:54:00,
2013-08-22 22:03:00,74.0,58.0,-100.00,SSE,159,2.0,9.0,58,0.00,,,-99.99,1.000000,,2013-08-23 05:03:00,
2013-08-22 22:11:00,73.0,55.0,-100.00,West,265,4.0,9.0,54,0.00,,,-99.99,1.000000,,2013-08-23 05:11:00,
2013-08-22 22:42:00,73.0,55.0,-100.00,West,265,4.0,9.0,54,0.00,,,-99.99,1.000000,,2013-08-23 05:42:00,
2013-08-22 22:52:00,73.0,55.0,-100.00,West,265,4.0,9.0,54,0.00,,,-99.99,1.000000,,2013-08-23 05:52:00,
2013-08-22 23:02:00,73.0,55.0,-100.00,West,265,4.0,9.0,54,0.00,,,-99.99,1.000000,,2013-08-23 06:02:00,
2013-08-22 23:11:00,71.0,56.0,-100.00,West,269,4.0,8.0,60,0.00,,,-99.99,1.000000,,2013-08-23 06:11:00,
2013-08-22 23:42:00,71.0,56.0,-100.00,West,269,4.0,8.0,60,0.00,,,-99.99,1.000000,,2013-08-23 06:42:00,
2013-08-22 23:52:00,71.0,56.0,-100.00,West,269,4.0,8.0,60,0.00,,,-99.99,1.000000,,2013-08-23 06:52:00,